ZIYUAN 1-02C (ZY 1-02C)

Last updated on Mon Oct 14 2024 00:02:24 GMT+0000 (Coordinated Universal Time)

1 38038U 11079A 24287.52654237 .00001776 00000+0 61124-3 0 9994 2 38038 98.4860 354.3580 0006049 344.8894 128.1206 14.37192312671317
UTC large
Height (km)
Speed (km/s)
/
Latitude / Longitude
Inclination (degrees)
Orbital Period (minutes)
Azimuth
Elevation
Range (km)
Doppler Factor

Next 0 passes for location: London (51.5072 / 0.1276)

Sorry there are no passes over London.